Showing default

HULIANWANG DIGUI-52, 65109

Orbit data source: Space-Track

HULIANWANG DIGUI-52, 65109 is a payload satellite owned by Zhongguo Xingwang (CN) in LEO that was launched on Mon, 04 Aug 2025 UTC via a CHANG ZHENG 12 launch vehicle from the Wenchang Satellite Launch Center (WSC). Payload-class satellites include a variety of spacecraft equipped with specific instruments for various scientific and technological missions. These include communications satellites like Starlink; space stations such as the ISS; scientific satellites like the Hubble; Earth observation satellites from companies like Planet Labs, Umbra, and HawkEye 360; GPS; miniature CubeSats for education and research; and military/defense satellites.

Loading next visibility...
Identifier
65109, 2025-168D
Orbit
LEO
Country
Flag of CNCN / PRC
Related business
Manufacturer
YINNT
Mission
Operational Civil Communications
Bus & Motor
XINGWANG Y, Unknown motor
Mass
~800 kg wet, ~800 kg dry
Launch date (UTC)
2025-08-04 (11 months ago)
Launch vehicle
CHANG ZHENG 12
Launch site
Wenchang Satellite Launch Center (WSC)
Object type
Payload
Rocket body
Debris
Shape & HBR
Box + 2 Pan, 2.1 m
Radar Cross Section
5.935 m², Large (>1 m²)

Expand to show TLE details & history
Last TLE update: 10 hours ago

TLE from 10 hours ago
0 HULIANWANG DIGUI-52
1 65109U 25168D   26171.44414742 -.00000081  00000-0  91982-4 0  9993
2 65109  50.0043 314.0589 0010687 113.0879 247.1121 13.29320746 43121
Epoch: 2026-06-20T10:39Z
TLE epoch observation values (Epoch: 2026-06-20T10:39:34.337Z)
Latitude
0.00003°
Longitude
-114.49283°
Altitude
1,152.969 km
Speed
7.276 km/s
True Right ascension
20h 56m 14s
True Declination
0° 00' 00"
Sunlit
Object was in full shadow at epoch
Visualization orbit readout
Latitude
Unknown
Longitude
Unknown
Altitude
Unknown
Speed
Unknown
Apparent Right ascension
Unknown
Apparent Declination
Unknown
Sunlit
N/A
Visualization observer readout
Local Sidereal Time
07:22:51
Azimuth
Unknown
Elevation
Unknown
Doppler factor
Unknown
Orbital elements
Apogee altitude
1,158.076 km
Perigee altitude
1,141.986 km
Semi-major axis
7,528.168 km
Eccentricity
0.00107
Inclination
50.0043°
RAAN
314.0589°
Arg. of periapsis
113.0879°
True anomaly
246.99934°
Mean anomaly
247.1121°
Eccentric anomaly
247.05571°
Mean motion
3.32284 °/min
Orbital period
108.34 mins
BSTAR
0.000091982
Loading maneuver chart data...
Computing Atmospheric mass density...
Loading historical data...
Loading historical data...
Loading historical data...
Loading historical data...
Loading historical data...
Loading historical data...
Loading historical data...

Documentation

Showing up to 5 results
|